Clyde Park, MT

5:39 AM MST on February 08, 2016 (GMT -0700)
Mission

Weather History for KLVM - April, 2013

Change the Weather History Date:

Sunday, April 7, 2013

  Actual Average Record
Temperature  
Mean Temperature 45 °F 40 °F  
Max Temperature 57 °F 52 °F 74 °F (2005)
Min Temperature 33 °F 28 °F 11 °F (1983)
Degree Days  
Heating Degree Days 20 25  
Month to date heating degree days 179  
Since 1 July heating degree days 6438  
Cooling Degree Days 0 0  
Month to date cooling degree days 0  
Year to date cooling degree days 0  
Moisture  
Dew Point 33 °F    
Average Humidity 72    
Maximum Humidity 93    
Minimum Humidity 32    
Precipitation  
Precipitation 0.05 in 0.05 in 0.85 in ()
Month to date precipitation 0.33  
Year to date precipitation 2.16  
Sea Level Pressure  
Sea Level Pressure 29.65 in    
Wind  
Wind Speed 9 mph (WNW)    
Max Wind Speed 29 mph    
Max Gust Speed 36 mph    
Visibility 10 miles    
Events Rain , Snow    
T = Trace of Precipitation, MM = Missing Value Source: NWS Daily Summary

Daily Weather History Graph

Daily Weather History Graph

Search for Another Location

Airport or City:

Trip Planner

Search our weather history database for the weather conditions in past years. The results will help you decide how hot, cold, wet, or windy it might be!

Date:

Astronomy

Apr. 07, 2013 Rise Set
Actual Time 6:50 AM MDT 7:58 PM MDT
Civil Twilight 6:19 AM MDT 8:28 PM MDT
Nautical Twilight 5:43 AM MDT 9:05 PM MDT
Astronomical Twilight 5:04 AM MDT 9:44 PM MDT
Moon 5:17 AM MDT (4/7) 5:28 PM MDT (4/7)
Length of Visible Light 14h 09m
Length of Day
13h 08m
Waning Crescent, 8% of the Moon is Illuminated
Apr 7
Waning Crescent
Apr 10
New
Apr 18
First Quarter
Apr 25
Full
May 2
Last Quarter

Hourly Weather History & Observations

Time (MDT) Temp. Windchill Dew Point Humidity Pressure Visibility Wind Dir Wind Speed Gust Speed Precip Events Conditions
12:53 AM 41.0 °F 37.1 °F 35.1 °F 79% 29.78 in 10.0 mi West 5.8 mph - 0.00 in   Overcast
1:53 AM 41.0 °F 34.7 °F 36.0 °F 82% 29.76 in 10.0 mi WSW 10.4 mph - N/A   Overcast
2:53 AM 37.0 °F 33.3 °F 33.1 °F 86% 29.76 in 10.0 mi WNW 4.6 mph - N/A   Mostly Cloudy
3:53 AM 37.0 °F - 32.0 °F 82% 29.75 in 10.0 mi Calm Calm - N/A   Overcast
4:53 AM 35.1 °F 31.0 °F 30.0 °F 82% 29.75 in 10.0 mi NW 4.6 mph - N/A   Clear
5:53 AM 36.0 °F 29.0 °F 30.9 °F 82% 29.72 in 10.0 mi WNW 9.2 mph - N/A   Clear
6:53 AM 34.0 °F 26.6 °F 28.9 °F 82% 29.72 in 10.0 mi NW 9.2 mph - N/A   Mostly Cloudy
7:53 AM 35.1 °F 29.3 °F 30.0 °F 82% 29.72 in 10.0 mi WNW 6.9 mph - N/A   Overcast
8:53 AM 37.0 °F 29.8 °F 30.9 °F 79% 29.71 in 10.0 mi NW 10.4 mph - N/A   Partly Cloudy
9:53 AM 42.1 °F - 34.0 °F 73% 29.68 in 10.0 mi Calm Calm - N/A   Overcast
10:53 AM 46.9 °F - 34.0 °F 61% 29.64 in 10.0 mi East 4.6 mph - N/A   Partly Cloudy
11:53 AM 50.0 °F - 34.0 °F 54% 29.61 in 10.0 mi ENE 9.2 mph - N/A   Overcast
12:48 PM 51.8 °F - 30.2 °F 44% 29.60 in 10.0 mi SW 19.6 mph 23.0 mph N/A   Overcast
12:53 PM 53.1 °F - 30.9 °F 43% 29.57 in 10.0 mi SW 20.7 mph 24.2 mph N/A   Overcast
1:53 PM 53.1 °F - 30.0 °F 41% 29.55 in 10.0 mi SW 28.8 mph 35.7 mph N/A   Overcast
2:53 PM 57.0 °F - 27.0 °F 32% 29.51 in 10.0 mi West 11.5 mph - N/A   Clear
3:53 PM 52.0 °F - 28.0 °F 40% 29.52 in 10.0 mi WNW 18.4 mph 24.2 mph N/A   Overcast
4:02 PM 50.0 °F - 33.8 °F 54% 29.54 in 10.0 mi WNW 13.8 mph - N/A   Overcast
4:53 PM 44.1 °F 40.1 °F 35.1 °F 71% 29.60 in 10.0 mi North 6.9 mph - 0.00 in   Overcast
5:00 PM 42.8 °F 38.0 °F 35.6 °F 76% 29.59 in 9.0 mi NNW 8.1 mph - 0.01 in Rain Light Rain
5:14 PM 42.8 °F 41.1 °F 37.4 °F 81% 29.59 in 9.0 mi NNW 3.5 mph - 0.02 in Rain Light Rain
5:53 PM 43.0 °F 36.0 °F 36.0 °F 76% 29.61 in 10.0 mi West 13.8 mph - 0.03 in Rain Light Rain
6:01 PM 42.8 °F 37.5 °F 35.6 °F 76% 29.59 in 10.0 mi WSW 9.2 mph - 0.00 in Rain Light Rain
6:25 PM 42.8 °F 39.3 °F 37.4 °F 81% 29.58 in 10.0 mi South 5.8 mph - 0.01 in   Mostly Cloudy
6:53 PM 42.1 °F 36.6 °F 36.0 °F 79% 29.61 in 10.0 mi NW 9.2 mph - 0.01 in   Partly Cloudy
7:53 PM 41.0 °F 32.5 °F 35.1 °F 79% 29.62 in 10.0 mi WSW 17.3 mph - N/A   Mostly Cloudy
8:53 PM 39.0 °F 29.0 °F 34.0 °F 82% 29.65 in 10.0 mi WSW 20.7 mph 31.1 mph 0.00 in   Overcast
9:53 PM 39.0 °F 31.0 °F 35.1 °F 86% 29.66 in 10.0 mi West 13.8 mph - 0.00 in   Overcast
10:30 PM 39.2 °F 31.2 °F 33.8 °F 81% 29.65 in 10.0 mi West 13.8 mph - 0.01 in   Overcast
10:53 PM 37.0 °F 27.0 °F 33.1 °F 86% 29.68 in 10.0 mi NNW 18.4 mph 24.2 mph 0.01 in Rain Light Rain
11:06 PM 33.8 °F 25.3 °F 32.0 °F 93% 29.68 in 7.0 mi WNW 11.5 mph - 0.00 in   Overcast
11:53 PM 33.1 °F 23.4 °F 28.0 °F 82% 29.73 in 4.0 mi NW 13.8 mph - 0.00 in Snow Light Snow